When you browse on this site, cookies collect data to enhance your experience and personalize the content and advertising you see.
Visit our Privacy Policy to learn more. By continuing to use the site, you agree to this use of cookies and data.
  • en Belgique
  • Liste des pays
  • À 7 jours
  • Température de l'eau
  • Carte satellitaire
  • Carte météo
  • Widgets météo
  • user-avatar
    Se connecter

    Météo par heure à Vorotynsk

    Ce jour, 23 Avril, Mardi

    Heure Température Précipitation Vent Pression Humidité
    00:00 +13°C° 0 mm 2 m/s 756 mmHg 48%
    01:00 +13°C° 0 mm 2 m/s 756 mmHg 50%
    02:00 +12°C° 0 mm 2 m/s 757 mmHg 51%
    03:00 +12°C° 0 mm 2 m/s 757 mmHg 53%
    04:00 +12°C° 0 mm 2 m/s 757 mmHg 53%
    05:00 +12°C° 0 mm 2 m/s 757 mmHg 54%
    06:00 +12°C° 0 mm 1 m/s 757 mmHg 54%
    07:00 +13°C° 0 mm 2 m/s 757 mmHg 52%
    08:00 +14°C° 0 mm 2 m/s 757 mmHg 49%
    09:00 +15°C° 0 mm 2 m/s 757 mmHg 46%
    10:00 +16°C° 0 mm 2 m/s 757 mmHg 41%
    11:00 +17°C° 0 mm 2 m/s 757 mmHg 36%
    12:00 +19°C° 0 mm 3 m/s 757 mmHg 32%
    13:00 +19°C° 0 mm 3 m/s 757 mmHg 32%
    14:00 +19°C° 0 mm 3 m/s 757 mmHg 31%
    15:00 +19°C° 0 mm 3 m/s 757 mmHg 31%
    16:00 +19°C° 0 mm 3 m/s 757 mmHg 33%
    17:00 +19°C° 0 mm 3 m/s 757 mmHg 36%
    18:00 +18°C° 0 mm 3 m/s 756 mmHg 38%
    19:00 +17°C° 0 mm 3 m/s 757 mmHg 42%
    20:00 +16°C° 0 mm 3 m/s 757 mmHg 46%
    21:00 +13°C° 0 mm 3 m/s 757 mmHg 51%
    22:00 +13°C° 0 mm 3 m/s 757 mmHg 53%
    23:00 +12°C° 0 mm 3 m/s 757 mmHg 55%

    Demain, 24 Avril, Mercredi

    Heure Température Précipitation Vent Pression Humidité
    00:00 +11°C° 0 mm 3 m/s 757 mmHg 56%
    01:00 +11°C° 0 mm 3 m/s 757 mmHg 58%
    02:00 +10°C° 0 mm 3 m/s 757 mmHg 60%
    03:00 +10°C° 0 mm 3 m/s 757 mmHg 62%
    04:00 +10°C° 0 mm 3 m/s 757 mmHg 64%
    05:00 +9°C° 0 mm 3 m/s 757 mmHg 66%
    06:00 +9°C° 0 mm 3 m/s 757 mmHg 68%
    07:00 +11°C° 0 mm 3 m/s 757 mmHg 63%
    08:00 +13°C° 0 mm 3 m/s 757 mmHg 58%
    09:00 +16°C° 0 mm 3 m/s 758 mmHg 53%
    10:00 +17°C° 0 mm 3 m/s 757 mmHg 48%
    11:00 +19°C° 0 mm 4 m/s 757 mmHg 42%
    12:00 +20°C° 0 mm 4 m/s 757 mmHg 37%
    13:00 +21°C° 0 mm 4 m/s 757 mmHg 36%
    14:00 +21°C° 0 mm 4 m/s 757 mmHg 35%
    15:00 +22°C° 0 mm 3 m/s 757 mmHg 34%
    16:00 +21°C° 0 mm 3 m/s 756 mmHg 36%
    17:00 +21°C° 0 mm 3 m/s 756 mmHg 38%
    18:00 +21°C° 0 mm 3 m/s 756 mmHg 40%
    19:00 +19°C° 0 mm 2 m/s 756 mmHg 44%
    20:00 +18°C° 0 mm 2 m/s 756 mmHg 48%
    21:00 +16°C° 0 mm 2 m/s 756 mmHg 52%
    22:00 +16°C° 0 mm 2 m/s 756 mmHg 54%
    23:00 +15°C° 0 mm 2 m/s 756 mmHg 56%

    Après-demain, 25 Avril, Jeudi

    Heure Température Précipitation Vent Pression Humidité
    00:00 +14°C° 0 mm 2 m/s 756 mmHg 58%
    01:00 +14°C° 0 mm 2 m/s 756 mmHg 59%
    02:00 +13°C° 0 mm 2 m/s 756 mmHg 61%
    03:00 +13°C° 0 mm 2 m/s 756 mmHg 62%
    04:00 +13°C° 0 mm 2 m/s 757 mmHg 64%
    05:00 +12°C° 0 mm 2 m/s 757 mmHg 65%
    06:00 +12°C° 0 mm 2 m/s 757 mmHg 67%
    07:00 +14°C° 0 mm 2 m/s 757 mmHg 61%
    08:00 +16°C° 0 mm 2 m/s 757 mmHg 56%
    09:00 +18°C° 0 mm 2 m/s 757 mmHg 50%
    10:00 +19°C° 0 mm 2 m/s 757 mmHg 46%
    11:00 +20°C° 0 mm 2 m/s 757 mmHg 42%
    12:00 +22°C° 0 mm 3 m/s 757 mmHg 37%
    13:00 +23°C° 0 mm 2 m/s 756 mmHg 36%
    14:00 +24°C° 0 mm 2 m/s 756 mmHg 34%
    15:00 +24°C° 0 mm 2 m/s 756 mmHg 33%
    16:00 +24°C° 0 mm 2 m/s 756 mmHg 34%
    17:00 +24°C° 0 mm 2 m/s 755 mmHg 36%
    18:00 +24°C° 0 mm 2 m/s 755 mmHg 37%
    19:00 +22°C° 0 mm 1 m/s 755 mmHg 41%
    20:00 +20°C° 0 mm 1 m/s 755 mmHg 45%
    21:00 +19°C° 0 mm 1 m/s 755 mmHg 49%
    22:00 +18°C° 0 mm 1 m/s 755 mmHg 51%
    23:00 +18°C° 0 mm 1 m/s 755 mmHg 53%

    26 Avril, Vendredi

    Heure Température Précipitation Vent Pression Humidité
    00:00 +16°C° 0 mm 1 m/s 755 mmHg 55%
    01:00 +16°C° 0 mm 1 m/s 755 mmHg 56%
    02:00 +16°C° 0 mm 1 m/s 755 mmHg 57%
    03:00 +16°C° 0 mm 1 m/s 755 mmHg 57%
    04:00 +15°C° 0.2 mm 1 m/s 755 mmHg 61%
    05:00 +15°C° 0.2 mm 1 m/s 755 mmHg 64%
    06:00 +15°C° 0.2 mm 1 m/s 755 mmHg 67%
    07:00 +16°C° 0.2 mm 1 m/s 755 mmHg 62%
    08:00 +18°C° 0.2 mm 1 m/s 755 mmHg 57%
    09:00 +20°C° 0.2 mm 1 m/s 755 mmHg 53%
    10:00 +20°C° 0 mm 2 m/s 755 mmHg 49%
    11:00 +21°C° 0 mm 2 m/s 755 mmHg 46%
    12:00 +23°C° 0 mm 2 m/s 755 mmHg 42%
    13:00 +23°C° 0 mm 2 m/s 754 mmHg 42%
    14:00 +23°C° 0 mm 2 m/s 754 mmHg 42%
    15:00 +23°C° 0 mm 2 m/s 754 mmHg 43%
    16:00 +23°C° 0 mm 2 m/s 754 mmHg 45%
    17:00 +21°C° 0 mm 2 m/s 753 mmHg 48%
    18:00 +21°C° 0 mm 2 m/s 753 mmHg 50%
    19:00 +19°C° 0.5 mm 2 m/s 753 mmHg 58%
    20:00 +18°C° 0.5 mm 2 m/s 753 mmHg 65%
    21:00 +16°C° 0.5 mm 2 m/s 753 mmHg 73%
    22:00 +15°C° 1.1 mm 2 m/s 753 mmHg 77%
    23:00 +15°C° 1.1 mm 2 m/s 753 mmHg 82%

    27 Avril, Samedi

    Heure Température Précipitation Vent Pression Humidité
    00:00 +14°C° 1.1 mm 2 m/s 753 mmHg 86%
    01:00 +14°C° 0.3 mm 2 m/s 753 mmHg 87%
    02:00 +14°C° 0.3 mm 2 m/s 753 mmHg 88%
    03:00 +14°C° 0.3 mm 2 m/s 752 mmHg 90%
    04:00 +13°C° 0.2 mm 2 m/s 752 mmHg 90%
    05:00 +13°C° 0.2 mm 2 m/s 752 mmHg 91%
    06:00 +13°C° 0.2 mm 1 m/s 752 mmHg 91%
    07:00 +14°C° 0 mm 2 m/s 752 mmHg 83%
    08:00 +16°C° 0 mm 2 m/s 752 mmHg 75%
    09:00 +18°C° 0 mm 2 m/s 752 mmHg 68%
    10:00 +19°C° 0 mm 2 m/s 752 mmHg 59%
    11:00 +20°C° 0 mm 2 m/s 751 mmHg 51%
    12:00 +21°C° 0 mm 2 m/s 751 mmHg 42%
    13:00 +21°C° 0 mm 2 m/s 751 mmHg 43%
    14:00 +21°C° 0 mm 2 m/s 750 mmHg 44%
    15:00 +21°C° 0 mm 2 m/s 750 mmHg 45%
    16:00 +21°C° 0 mm 2 m/s 750 mmHg 49%
    17:00 +20°C° 0 mm 2 m/s 750 mmHg 52%
    18:00 +21°C° 0 mm 1 m/s 750 mmHg 56%
    19:00 +20°C° 0 mm 1 m/s 750 mmHg 57%
    20:00 +19°C° 0 mm 1 m/s 750 mmHg 58%
    21:00 +19°C° 0 mm 1 m/s 749 mmHg 59%
    22:00 +18°C° 0 mm 1 m/s 749 mmHg 62%
    23:00 +16°C° 0 mm 2 m/s 749 mmHg 65%

    28 Avril, Dimanche

    Heure Température Précipitation Vent Pression Humidité
    00:00 +15°C° 0 mm 2 m/s 749 mmHg 67%
    01:00 +15°C° 0.1 mm 2 m/s 749 mmHg 71%
    02:00 +15°C° 0.1 mm 2 m/s 749 mmHg 75%
    03:00 +14°C° 0.1 mm 2 m/s 749 mmHg 79%
    04:00 +14°C° 0.1 mm 1 m/s 749 mmHg 81%
    05:00 +14°C° 0.1 mm 1 m/s 749 mmHg 83%
    06:00 +13°C° 0.1 mm 0 m/s 749 mmHg 85%
    07:00 +14°C° 0.2 mm 1 m/s 749 mmHg 84%
    08:00 +15°C° 0.2 mm 1 m/s 749 mmHg 83%
    09:00 +15°C° 0.2 mm 1 m/s 749 mmHg 82%
    10:00 +16°C° 0.3 mm 2 m/s 749 mmHg 79%
    11:00 +16°C° 0.3 mm 2 m/s 749 mmHg 77%
    12:00 +17°C° 0.3 mm 3 m/s 749 mmHg 74%
    13:00 +18°C° 0.2 mm 3 m/s 749 mmHg 69%
    14:00 +19°C° 0.2 mm 3 m/s 749 mmHg 63%
    15:00 +20°C° 0.2 mm 4 m/s 749 mmHg 58%
    16:00 +19°C° 0.3 mm 3 m/s 748 mmHg 64%
    17:00 +18°C° 0.3 mm 3 m/s 748 mmHg 70%
    18:00 +17°C° 0.3 mm 2 m/s 748 mmHg 76%
    19:00 +16°C° 0.3 mm 2 m/s 748 mmHg 78%
    20:00 +15°C° 0.3 mm 2 m/s 748 mmHg 81%
    21:00 +15°C° 0.3 mm 1 m/s 749 mmHg 84%
    22:00 +15°C° 0.4 mm 1 m/s 749 mmHg 86%
    23:00 +14°C° 0.4 mm 2 m/s 749 mmHg 87%
    Voir plus